Location: Hilton Head Island
(32.2163°N, 80.7526°W)
Time: 00:41:00
(UTC-05:00)

Tiros 1 despin weight - Pass Details

Date: 17 February 2026
Orbit: 556 x 593 km, 48.2° (Epoch: 5 March)

Event Time Altitude Azimuth Distance (km) Brightness Sun altitude
Rises 23:35:46 0° 283° (WNW) 2,743 - -65.1°
Reaches altitude 10° 23:40:23 10° 237° (WSW) 1,852 - -65.7°
Maximum altitude 23:40:42 10° 232° (SW) 1,848 - -65.7°
Drops below altitude 10° 23:41:01 10° 228° (SW) 1,853 - -65.7°
Sets 23:45:41 0° 182° (S) 2,757 - -66.3°
